| time (UTC) | temp F | wind direction | speed MPH | gust MPH | rain 1hr in | rain 24hr in | rain mn in | humidity % | barometer mb |
| 20260507155431 | 66 | 290 | 6.0 | 0.0 | 0.00 | 0.00 | 0.00 | 82 | 1015.0 |
| 20260507154030 | 66 | 290 | 6.0 | 0.0 | 0.00 | 0.00 | 0.00 | 75 | 1015.0 |
| 20260507152629 | 66 | 290 | 6.0 | 0.0 | 0.00 | 0.00 | 0.00 | 73 | 1016.0 |
| 20260507151228 | 66 | 290 | 6.0 | 0.0 | 0.00 | 0.00 | 0.00 | 71 | 1016.0 |
| 20260507145827 | 66 | 290 | 6.0 | 0.0 | 0.00 | 0.00 | 0.00 | 70 | 1016.0 |
| 20260507144426 | 66 | 290 | 6.0 | 0.0 | 0.00 | 0.00 | 0.00 | 70 | 1016.0 |
| 20260507143025 | 66 | 290 | 6.0 | 0.0 | 0.00 | 0.00 | 0.00 | 70 | 1016.0 |
| 20260507141625 | 66 | 290 | 6.0 | 0.0 | 0.00 | 0.00 | 0.00 | 69 | 1016.0 |
| 20260507140224 | 67 | 0 | 2.0 | 0.0 | 0.00 | 0.00 | 0.00 | 68 | 1016.0 |
| 20260507134823 | 67 | 0 | 2.0 | 0.0 | 0.00 | 0.00 | 0.00 | 68 | 1016.0 |
| 20260507133423 | 59 | 294 | 1.0 | 1.0 | 0.00 | 0.00 | 0.00 | 73 | 1016.0 |
| 20260507132022 | 59 | 294 | 1.0 | 1.0 | 0.00 | 0.00 | 0.00 | 73 | 1016.0 |
| 20260507130622 | 59 | 294 | 1.0 | 1.0 | 0.00 | 0.00 | 0.00 | 73 | 1016.0 |
| 20260507125221 | 59 | 294 | 2.0 | 1.0 | 0.00 | 0.00 | 0.00 | 73 | 1016.0 |
| 20260507123821 | 58 | 90 | 4.0 | 0.0 | 0.00 | 0.00 | 0.00 | 82 | 1016.0 |
| 20260507122420 | 58 | 90 | 4.0 | 0.0 | 0.00 | 0.00 | 0.00 | 82 | 1017.0 |
| 20260507121018 | 58 | 90 | 4.0 | 0.0 | 0.00 | 0.00 | 0.00 | 82 | 1017.0 |
| 20260507115618 | 58 | 90 | 4.0 | 0.0 | 0.00 | 0.00 | 0.00 | 82 | 1017.0 |
| 20260507114217 | 51 | 280 | 8.0 | 0.0 | 0.00 | 0.00 | 0.00 | 75 | 1017.0 |
| 20260507112816 | 51 | 280 | 8.0 | 0.0 | 0.00 | 0.00 | 0.00 | 75 | 1017.0 |
| 20260507111413 | 51 | 280 | 8.0 | 0.0 | 0.00 | 0.00 | 0.00 | 75 | 1017.0 |
| 20260507110010 | 51 | 280 | 8.0 | 0.0 | 0.00 | 0.00 | 0.00 | 75 | 1017.0 |
| 20260507104609 | 51 | 280 | 8.0 | 0.0 | 0.00 | 0.00 | 0.00 | 75 | 1017.0 |
| 20260507103206 | 51 | 280 | 8.0 | 0.0 | 0.00 | 0.00 | 0.00 | 75 | 1017.0 |
| 20260507101805 | 51 | 280 | 8.0 | 0.0 | 0.00 | 0.00 | 0.00 | 75 | 1017.0 |
| 20260507100404 | 51 | 280 | 8.0 | 0.0 | 0.00 | 0.00 | 0.00 | 75 | 1017.0 |
| 20260507095003 | 51 | 280 | 8.0 | 0.0 | 0.00 | 0.00 | 0.00 | 75 | 1017.0 |
| 20260507093601 | 51 | 280 | 8.0 | 0.0 | 0.00 | 0.00 | 0.00 | 75 | 1017.0 |
| 20260507092200 | 51 | 280 | 8.0 | 0.0 | 0.00 | 0.00 | 0.00 | 75 | 1016.0 |
| 20260507090758 | 51 | 280 | 8.0 | 0.0 | 0.00 | 0.00 | 0.00 | 75 | 1016.0 |
| 20260507085357 | 51 | 280 | 8.0 | 0.0 | 0.00 | 0.00 | 0.00 | 75 | 1016.0 |
| 20260507083954 | 51 | 280 | 8.0 | 0.0 | 0.00 | 0.00 | 0.00 | 75 | 1016.0 |
| 20260507082553 | 51 | 280 | 8.0 | 0.0 | 0.00 | 0.00 | 0.00 | 75 | 1016.0 |
| 20260507081153 | 51 | 280 | 8.0 | 0.0 | 0.00 | 0.00 | 0.00 | 75 | 1016.0 |
| 20260507075752 | 51 | 280 | 8.0 | 0.0 | 0.00 | 0.00 | 0.00 | 75 | 1016.0 |
| 20260507074352 | 51 | 280 | 8.0 | 0.0 | 0.00 | 0.00 | 0.00 | 75 | 1016.0 |
| 20260507072951 | 52 | 280 | 8.0 | 0.0 | 0.00 | 0.00 | 0.00 | 75 | 1017.0 |
| 20260507071548 | 52 | 280 | 8.0 | 0.0 | 0.00 | 0.00 | 0.00 | 75 | 1017.0 |
| 20260507070148 | 52 | 280 | 8.0 | 0.0 | 0.00 | 0.00 | 0.00 | 75 | 1017.0 |
| 20260507064747 | 52 | 280 | 8.0 | 0.0 | 0.00 | 0.00 | 0.00 | 75 | 1017.0 |
| 20260507063347 | 53 | 280 | 8.0 | 0.0 | 0.00 | 0.00 | 0.00 | 75 | 1017.0 |
| 20260507061946 | 53 | 280 | 8.0 | 0.0 | 0.00 | 0.00 | 0.00 | 75 | 1017.0 |
| 20260507060544 | 53 | 280 | 8.0 | 0.0 | 0.00 | 0.00 | 0.00 | 75 | 1017.0 |
| 20260507055143 | 53 | 280 | 8.0 | 0.0 | 0.00 | 0.00 | 0.00 | 75 | 1017.0 |
| 20260507053743 | 53 | 280 | 8.0 | 0.0 | 0.00 | 0.00 | 0.00 | 74 | 1017.0 |
| 20260507052342 | 53 | 280 | 8.0 | 0.0 | 0.00 | 0.00 | 0.00 | 74 | 1018.0 |
| 20260507050942 | 53 | 280 | 8.0 | 0.0 | 0.00 | 0.00 | 0.00 | 74 | 1018.0 |
| 20260507045541 | 53 | 280 | 8.0 | 0.0 | 0.00 | 0.00 | 0.00 | 74 | 1018.0 |
| 20260507044141 | 53 | 280 | 8.0 | 0.0 | 0.00 | 0.00 | 0.00 | 74 | 1018.0 |
| 20260507042740 | 53 | 280 | 8.0 | 0.0 | 0.00 | 0.00 | 0.00 | 74 | 1018.0 |
| 20260507041339 | 53 | 280 | 8.0 | 0.0 | 0.00 | 0.00 | 0.00 | 74 | 1018.0 |
| 20260507035939 | 53 | 280 | 8.0 | 0.0 | 0.00 | 0.00 | 0.00 | 74 | 1018.0 |
| 20260507034538 | 53 | 280 | 8.0 | 0.0 | 0.00 | 0.00 | 0.00 | 74 | 1018.0 |
| 20260507033138 | 54 | 280 | 8.0 | 0.0 | 0.00 | 0.00 | 0.00 | 74 | 1018.0 |
| 20260507031737 | 55 | 280 | 8.0 | 0.0 | 0.00 | 0.00 | 0.00 | 74 | 1018.0 |
| 20260507030336 | 55 | 280 | 8.0 | 0.0 | 0.00 | 0.00 | 0.00 | 74 | 1018.0 |
| 20260507024935 | 55 | 280 | 8.0 | 0.0 | 0.00 | 0.00 | 0.00 | 74 | 1018.0 |
| 20260507023534 | 55 | 280 | 8.0 | 0.0 | 0.00 | 0.00 | 0.00 | 73 | 1017.0 |
| 20260507022134 | 54 | 280 | 8.0 | 0.0 | 0.00 | 0.00 | 0.00 | 71 | 1017.0 |
| 20260507020733 | 54 | 280 | 8.0 | 0.0 | 0.00 | 0.00 | 0.00 | 69 | 1017.0 |
| 20260507015333 | 54 | 280 | 8.0 | 0.0 | 0.00 | 0.00 | 0.00 | 69 | 1017.0 |
| 20260507013932 | 55 | 280 | 8.0 | 0.0 | 0.00 | 0.00 | 0.00 | 69 | 1017.0 |
| 20260507012532 | 55 | 280 | 8.0 | 0.0 | 0.00 | 0.00 | 0.00 | 69 | 1016.0 |
| 20260507011131 | 55 | 280 | 8.0 | 0.0 | 0.00 | 0.00 | 0.00 | 69 | 1016.0 |
| 20260507005729 | 55 | 280 | 8.0 | 0.0 | 0.00 | 0.00 | 0.00 | 69 | 1016.0 |
| 20260507004329 | 56 | 280 | 8.0 | 0.0 | 0.00 | 0.00 | 0.00 | 69 | 1016.0 |
| 20260507002927 | 56 | 280 | 8.0 | 0.0 | 0.00 | 0.00 | 0.00 | 69 | 1015.0 |
| 20260507001527 | 56 | 280 | 8.0 | 0.0 | 0.00 | 0.00 | 0.00 | 69 | 1015.0 |
| 20260507000126 | 57 | 280 | 8.0 | 0.0 | 0.00 | 0.00 | 0.00 | 69 | 1015.0 |
| 20260506234725 | 58 | 280 | 8.0 | 0.0 | 0.00 | 0.00 | 0.00 | 69 | 1015.0 |
| 20260506233324 | 59 | 280 | 8.0 | 0.0 | 0.00 | 0.00 | 0.00 | 69 | 1014.0 |
| 20260506231921 | 60 | 280 | 8.0 | 0.0 | 0.00 | 0.00 | 0.00 | 69 | 1013.0 |
| 20260506230521 | 61 | 280 | 8.0 | 0.0 | 0.00 | 0.00 | 0.00 | 69 | 1013.0 |
| 20260506225119 | 62 | 280 | 8.0 | 0.0 | 0.00 | 0.00 | 0.00 | 69 | 1013.0 |
| 20260506223719 | 63 | 280 | 8.0 | 0.0 | 0.00 | 0.00 | 0.00 | 69 | 1013.0 |
| 20260506222319 | 63 | 280 | 8.0 | 0.0 | 0.00 | 0.00 | 0.00 | 69 | 1011.0 |
| 20260506220916 | 64 | 280 | 8.0 | 0.0 | 0.00 | 0.00 | 0.00 | 69 | 1011.0 |
| 20260506215516 | 65 | 280 | 8.0 | 0.0 | 0.00 | 0.00 | 0.00 | 69 | 1011.0 |
| 20260506214115 | 66 | 280 | 8.0 | 0.0 | 0.00 | 0.00 | 0.00 | 69 | 1011.0 |
| 20260506212712 | 67 | 280 | 8.0 | 0.0 | 0.00 | 0.00 | 0.00 | 69 | 1010.0 |
| 20260506205811 | 67 | 280 | 8.0 | 0.0 | 0.00 | 0.00 | 0.00 | 69 | 1010.0 |
| 20260506204410 | 67 | 280 | 8.0 | 0.0 | 0.00 | 0.00 | 0.00 | 69 | 1010.0 |
| 20260506203009 | 68 | 280 | 8.0 | 0.0 | 0.00 | 0.00 | 0.00 | 69 | 1010.0 |
| 20260506201609 | 69 | 280 | 8.0 | 0.0 | 0.00 | 0.00 | 0.00 | 69 | 1010.0 |
| 20260506200208 | 70 | 280 | 8.0 | 0.0 | 0.00 | 0.00 | 0.00 | 69 | 1010.0 |
| 20260506194808 | 71 | 280 | 8.0 | 0.0 | 0.00 | 0.00 | 0.00 | 69 | 1010.0 |
| 20260506193407 | 71 | 280 | 8.0 | 0.0 | 0.00 | 0.00 | 0.00 | 69 | 1011.0 |
| 20260506192006 | 71 | 280 | 8.0 | 0.0 | 0.00 | 0.00 | 0.00 | 69 | 1011.0 |
| 20260506190605 | 71 | 320 | 8.0 | 0.0 | 0.00 | 0.00 | 0.00 | 69 | 1011.0 |
| 20260506185205 | 71 | 320 | 8.0 | 0.0 | 0.00 | 0.00 | 0.00 | 69 | 1011.0 |
| 20260506183804 | 71 | 320 | 8.0 | 0.0 | 0.00 | 0.00 | 0.00 | 69 | 1011.0 |
| 20260506182404 | 67 | 290 | 8.0 | 0.0 | 0.00 | 0.00 | 0.00 | 75 | 1012.0 |
| 20260506181003 | 67 | 290 | 8.0 | 0.0 | 0.00 | 0.00 | 0.00 | 75 | 1012.0 |
| 20260506175602 | 67 | 290 | 8.0 | 0.0 | 0.00 | 0.00 | 0.00 | 75 | 1012.0 |
| 20260506174202 | 67 | 290 | 8.0 | 0.0 | 0.00 | 0.00 | 0.00 | 75 | 1013.0 |
| 20260506172801 | 67 | 300 | 8.0 | 0.0 | 0.00 | 0.00 | 0.00 | 75 | 1014.0 |
| 20260506165958 | 67 | 300 | 8.0 | 0.0 | 0.00 | 0.00 | 0.00 | 75 | 1014.0 |
| 20260506164558 | 67 | 300 | 8.0 | 0.0 | 0.00 | 0.00 | 0.00 | 75 | 1014.0 |
| 20260506163157 | 67 | 300 | 8.0 | 0.0 | 0.00 | 0.00 | 0.00 | 74 | 1014.0 |
| 20260506161754 | 67 | 300 | 8.0 | 0.0 | 0.00 | 0.00 | 0.00 | 73 | 1014.0 |
| 20260506160353 | 67 | 290 | 5.0 | 0.0 | 0.00 | 0.00 | 0.00 | 73 | 1014.0 |